EW6662 Weather Reports


time (UTC)temp
C
wind
direction
speed
KPH
gust
KPH
rain 1hr
cm
rain 24hr
cm
rain mn
cm
humidity
%
barometer
mb
20260508014548 5 143 0.0 0.0 0.00 0.25 0.03 67 1007.8
20260508013045 6 173 0.0 0.0 0.00 0.25 0.03 63 1007.7
20260508011545 7 173 0.0 0.0 0.00 0.25 0.03 56 1007.5
20260508010043 8 68 0.0 9.7 0.00 0.25 0.03 52 1007.3
20260508004545 9 38 4.8 12.9 0.00 0.38 0.03 50 1007.2
20260508003039 9 320 3.2 11.3 0.00 0.38 0.03 49 1007.1
20260508001539 9 285 1.6 8.0 0.00 0.38 0.03 51 1007.0
20260508000038 10 310 3.2 8.0 0.00 0.38 0.03 50 1006.8
20260507234538 10 298 1.6 9.7 0.00 0.58 0.03 49 1006.5
20260507233038 11 286 6.4 12.9 0.00 0.58 0.03 49 1006.2
20260507231546 11 176 6.4 17.7 0.00 0.58 0.03 48 1005.9
20260507230035 11 24 9.7 19.3 0.00 0.58 0.03 47 1005.6
20260507224537 12 360 8.0 19.3 0.00 0.64 0.03 50 1005.4
20260507223035 12 23 8.0 19.3 0.00 0.64 0.03 43 1005.3
20260507221533 12 31 8.0 22.5 0.00 0.64 0.03 44 1005.3
20260507220033 12 32 4.8 20.9 0.00 0.64 0.03 42 1005.1
20260507214532 12 319 6.4 16.1 0.00 0.66 0.03 43 1005.2
20260507213032 13 297 0.0 19.3 0.00 0.66 0.03 40 1005.1
20260507211531 13 6 8.0 24.1 0.00 0.66 0.03 40 1005.0
20260507210031 13 6 6.4 24.1 0.00 0.66 0.03 40 1004.8
20260507204530 13 326 6.4 25.7 0.00 0.79 0.03 44 1004.7
20260507203029 13 6 4.8 25.7 0.00 0.79 0.03 40 1004.5
20260507201527 13 69 9.7 25.7 0.00 0.79 0.03 38 1004.3
20260507200041 13 44 11.3 20.9 0.00 0.79 0.03 36 1004.3
20260507194525 13 359 8.0 27.4 0.00 0.94 0.03 43 1004.5
20260507193022 13 1 12.9 22.5 0.00 0.94 0.03 37 1004.5
20260507191520 13 32 11.3 25.7 0.00 0.94 0.03 41 1004.6
20260507190118 13 25 8.0 32.2 0.00 0.94 0.03 39 1004.8
20260507184517 13 36 11.3 33.8 0.00 1.83 0.03 40 1004.7
20260507183030 13 319 8.0 22.5 0.00 1.83 0.03 42 1004.7
20260507181514 13 349 11.3 32.2 0.00 1.83 0.03 41 1004.8
20260507180012 13 347 11.3 29.0 0.00 1.83 0.03 46 1004.8
20260507174511 12 25 9.7 24.1 0.00 1.98 0.03 52 1005.1
20260507173008 11 359 9.7 25.7 0.00 1.98 0.03 47 1005.2
20260507171507 11 334 9.7 20.9 0.00 1.98 0.03 52 1005.4
20260507170006 11 341 6.4 25.7 0.00 1.98 0.03 55 1005.5
20260507164504 12 300 8.0 19.3 0.00 2.01 0.03 64 1005.5
20260507163105 12 11 6.4 19.3 0.00 2.01 0.03 59 1005.6
20260507161504 12 352 3.2 19.3 0.00 2.01 0.03 62 1005.6
20260507160002 12 349 0.0 4.8 0.00 2.01 0.03 59 1005.6
20260507154600 12 46 4.8 17.7 0.00 2.01 0.03 61 1005.8
20260507153058 12 349 3.2 11.3 0.00 2.01 0.03 63 1006.1
20260507151557 11 30 9.7 22.5 0.00 2.01 0.03 63 1006.1
20260507150105 12 349 4.8 17.7 0.00 2.01 0.03 63 1006.1
20260507144556 11 351 1.6 19.3 0.00 2.01 0.03 64 1006.0
20260507143103 12 355 6.4 16.1 0.00 2.01 0.03 62 1006.1
20260507141557 12 338 1.6 20.9 0.00 2.01 0.03 64 1006.1
20260507140051 11 69 1.6 16.1 0.00 2.01 0.03 66 1006.3
20260507134554 11 8 8.0 20.9 0.00 2.01 0.03 66 1006.4
20260507133043 11 41 4.8 19.3 0.00 2.01 0.03 66 1006.6
20260507131541 10 281 6.4 17.7 0.00 2.01 0.03 70 1006.5
20260507130036 10 18 8.0 17.7 0.00 2.01 0.03 72 1006.5
20260507124534 10 335 3.2 16.1 0.00 2.01 0.03 72 1006.6
20260507123030 10 27 6.4 17.7 0.00 2.01 0.03 73 1006.7
20260507121529 9 11 1.6 12.9 0.00 2.01 0.03 73 1006.7
20260507120028 9 32 3.2 12.9 0.00 2.01 0.03 74 1006.8
20260507114531 8 19 6.4 16.1 0.00 2.01 0.03 78 1006.8
20260507113026 7 38 8.0 14.5 0.00 2.01 0.03 79 1007.0
20260507111525 7 29 4.8 11.3 0.00 2.01 0.03 79 1007.0
20260507110025 7 323 4.8 12.9 0.00 2.01 0.03 79 1006.9
20260507104525 7 345 8.0 16.1 0.00 2.01 0.03 79 1007.2
20260507103023 7 37 8.0 14.5 0.00 2.01 0.03 82 1007.0
20260507101520 6 19 4.8 11.3 0.00 2.01 0.03 86 1006.8
20260507100017 6 1 1.6 6.4 0.00 2.01 0.03 91 1006.9
20260507094516 6 199 0.0 0.0 0.00 2.01 0.03 90 1006.8
20260507093014 6 297 0.0 4.8 0.00 2.01 0.03 90 1006.5
20260507091514 5 218 0.0 3.2 0.00 2.01 0.03 92 1006.5
20260507090013 6 193 0.0 0.0 0.00 2.01 0.03 91 1006.6
20260507084524 6 193 0.0 0.0 0.00 2.01 0.03 90 1006.6
20260507083008 6 206 0.0 8.0 0.00 2.01 0.03 88 1006.9
20260507081511 7 358 4.8 9.7 0.00 2.01 0.03 87 1006.1
20260507080003 7 352 4.8 14.5 0.00 2.01 0.03 88 1006.0
20260507074503 7 17 4.8 11.3 0.00 2.01 0.03 87 1006.3
20260507073101 7 318 9.7 14.5 0.00 2.01 0.03 85 1006.4
20260507071600 7 299 6.4 17.7 0.00 2.01 0.03 85 1006.1
20260507070104 7 318 11.3 16.1 0.00 2.01 0.03 86 1005.9
20260507064556 7 1 9.7 20.9 0.00 2.01 0.03 88 1006.0
20260507063052 8 356 9.7 19.3 0.00 2.01 0.03 89 1005.7
20260507061547 8 287 11.3 17.7 0.00 2.01 0.03 88 1005.4
20260507060059 8 321 11.3 17.7 0.00 2.01 0.03 89 1005.3
20260507054552 8 305 12.9 20.9 0.00 2.01 0.03 89 1005.4
20260507053050 8 340 11.3 17.7 0.00 2.01 0.03 90 1005.2
20260507051542 8 323 9.7 16.1 0.03 2.01 0.03 91 1005.1
20260507050042 8 349 8.0 12.9 0.03 2.01 0.03 92 1005.2
20260507044537 8 291 9.7 17.7 0.05 2.01 0.03 91 1005.2
20260507043033 8 286 12.9 22.5 0.08 2.01 0.03 91 1005.6
20260507041532 9 312 9.7 24.1 0.05 1.98 0.00 91 1005.4
20260507040026 10 297 9.7 17.7 0.08 1.98 0.00 92 1005.7
20260507034539 10 314 9.7 19.3 0.08 1.96 1.96 92 1005.6
20260507033022 10 342 9.7 17.7 0.08 1.93 1.93 91 1005.3
20260507031520 10 349 11.3 24.1 0.15 1.93 1.93 91 1005.1
20260507030019 10 347 8.0 19.3 0.15 1.91 1.91 91 1005.0
20260507024528 11 303 8.0 16.1 0.13 1.91 1.88 91 1004.8
20260507023010 11 305 8.0 14.5 0.08 1.85 1.83 91 1004.8
20260507021508 11 281 8.0 11.3 0.00 1.78 1.75 92 1004.9
20260507020006 11 297 4.8 11.3 0.00 1.78 1.75 91 1004.6